This is the latest recevied weather packets stored in our database for station/object KE8KMM. If no packets are shown the sender has not sent any weather packets the latest 10 day(s).
| Time | Temp. | Humidity | Pressure | Rain* | Wind** | Luminosity | Snow |
|---|---|---|---|---|---|---|---|
| 1777565171 | 9.44° C | 78% | 1014 hPa | 0 mm | - | 264 W/m² | - |
| 1777564867 | 9.44° C | 79% | 1014.1 hPa | 0 mm | - | 208 W/m² | - |
| 1777564561 | 8.89° C | 80% | 1014 hPa | 0 mm | - | 92 W/m² | - |
| 1777564257 | 8.89° C | 79% | 1014 hPa | 0 mm | - | 51 W/m² | - |
| 1777563954 | 8.89° C | 79% | 1013.8 hPa | 0 mm | - | 56 W/m² | - |
| 1777563650 | 8.89° C | 78% | 1013.9 hPa | 0 mm | - | 52 W/m² | - |
| 1777563344 | 8.89° C | 78% | 1013.9 hPa | 0 mm | - | 65 W/m² | - |
| 1777563041 | 9.44° C | 77% | 1013.8 hPa | 0 mm | - | 84 W/m² | - |
| 1777562736 | 10° C | 78% | 1013.7 hPa | 0 mm | - | 138 W/m² | - |
| 1777562435 | 10.56° C | 79% | 1013.7 hPa | 0 mm | - | 295 W/m² | - |
| 1777562132 | 9.44° C | 79% | 1013.8 hPa | 0 mm | - | 1010 W/m² | - |
| 1777561830 | 8.89° C | 82% | 1013.7 hPa | 0 mm | - | 343 W/m² | - |
| 1777561526 | 8.89° C | 81% | 1013.9 hPa | 0 mm | - | 287 W/m² | - |
| 1777561221 | 7.78° C | 81% | 1013.8 hPa | 0 mm | - | 166 W/m² | - |
| 1777560920 | 8.33° C | 83% | 1013.6 hPa | 0 mm | - | 89 W/m² | - |
| 1777560618 | 8.33° C | 82% | 1013.6 hPa | 0 mm | - | 111 W/m² | - |
| 1777560316 | 8.89° C | 82% | 1013.5 hPa | 0 mm | - | 252 W/m² | - |
| 1777560014 | 8.33° C | 83% | 1013.7 hPa | 0 mm | - | 251 W/m² | - |
| 1777559709 | 7.78° C | 83% | 1013.8 hPa | 0 mm | - | 187 W/m² | - |
| 1777559406 | 8.33° C | 82% | 1013.5 hPa | 0 mm | - | 97 W/m² | - |
| 1777559103 | 8.33° C | 82% | 1013.4 hPa | 0 mm | - | 120 W/m² | - |
| 1777558797 | 8.33° C | 82% | 1013.6 hPa | 0 mm | - | 138 W/m² | - |
| 1777558493 | 8.33° C | 82% | 1013.3 hPa | 0 mm | - | 136 W/m² | - |
| 1777558190 | 8.33° C | 81% | 1013.3 hPa | 0 mm | - | 239 W/m² | - |
| 1777557886 | 8.33° C | 84% | 1013 hPa | 0 mm | - | 218 W/m² | - |
* Rain latest hour (hover to see other rain measurements)
** Current wind speed in m/s (hover to see current wind gust speed)